Location: Kalberh�ni
(46.4610°N, 7.2453°E)
Time: 06:58:34
(UTC+00:00)

ARIANE 5 R/B - Pass Details

Date: 20 June 2021
Orbit: 620 x 656 km, 98.1° (Epoch: 16 July)

Event Time Altitude Azimuth Distance (km) Brightness Sun altitude
Exits shadow 20:01:01 - 131° (SE) 2,328 4.8 -5.3°
Reaches altitude 10° 20:01:49 10° 127° (SE) 2,039 4.5 -5.4°
Maximum altitude 20:05:41 30° 66° (ENE) 1,161 3.8 -5.9°
Drops below altitude 10° 20:09:37 10° 6° (N) 2,069 5.8 -6.4°
Sets 20:12:03 0° 356° (N) 2,989 6.9 -6.7°
